STARLINK-2022 (47643 NORAD) Tracking and Keplerian Element Data
This shows tracking and keplerian element data for the satellite.
Feedback or suggestion? Click here.
Element | Value |
Catalog | 47643 |
Name | STARLINK-2022 |
Epoch Orbit | 177 |
Epoch Day | 101.91668981 |
Epoch Year | 2021 |
RAAN | 188.9454 |
Inclination | 53.0475 |
Eccentricity | 0.0001625 |
Argument of Perigee | 29.858 |
Mean Anonmoly | 34.5239 |
Mean Motion | 15.7323376 |
Decay Rate | -0.00017089 |
L1 | 1 47643U 21012Z 21101.91668981 -.00017089 00000-0 -11738-3 0 9993 |
L2 | 2 47643 53.0475 188.9454 0001625 29.8580 34.5239 15.73233760 1773 |
Live tracking and technical data element details for STARLINK-2022 (NORAD 47643). STARLINK-2022 can be tracked NOW for your location showing map with azimuth and elevation plus other details from your city location.
Track the satellite on the map from your city or location and see movement details for azimuth, elevation, latitude, longitude, range, height, and movement on the map or in text.
IsCatalogInMostPopularTable: catalog: 47643, numindb: 15
Update: records affected: 1
GetName: 47643 STARLINK-2022
Hit Count: updated at: Tue, 13 Apr 2021 04:44:13 GMT